Location: Feigenhofen
(48.4939°N, 10.7793°E)
Time: 17:31:20
(UTC+00:00)

Thor Agena Rocket - Pass Details

Date: 26 May 2022
Orbit: 759 x 807 km, 99.0° (Epoch: 07 July)

Event Time Altitude Azimuth Distance (km) Brightness Sun altitude
Rises 00:05:40 0° 18° (NNE) 3,323 8.4 -19.5°
Reaches altitude 10° 00:08:04 10° 23° (NNE) 2,392 7.3 -19.4°
Maximum altitude 00:13:15 54° 101° (E) 976 4.0 -19.2°
Enters shadow 00:15:38 30° 164° (SSE) 1,401 4.4 -19.1°
